Regional Weather Roundup
Issued by NWS Albany, NY

Current Version | Previous Version | Graphics & Text | Print | Product List | Glossary Off
Versions: 1 2 3 4 5 6 7 8 9 10 11 12 13 14 15 16 17 18 19 20 21 22 23 24 25 26 27 28 29 30 31 32 33 34 35 36 37 38 39 40 41 42 43 44 45 46 47 48 49 50

000
ASUS41 KALY 171910
RWRALY

NEW YORK STATE HOURLY WEATHER ROUNDUP
NATIONAL WEATHER SERVICE ALBANY NY
300 PM EDT WED SEP 17 2014

NOTE: "FAIR" INDICATES FEW OR NO CLOUDS BELOW 12,000 FEET WITH NO
SIGNIFICANT WEATHER AND/OR NO OBSTRUCTIONS TO VISIBILITY.

NYZ032-033-038>043-046>054-057>066-NYZ062>081-172000-
EAST


CITY           SKY/WX    TMP DP  RH WIND       PRES   REMARKS
ALBANY         MOSUNNY   68  44  42 W6        29.98F
GLENS FALLS    MOSUNNY   66  43  43 SW8       29.96F
POUGHKEEPSIE   MOSUNNY   69  44  40 SW6       29.97F
NEWBURGH       MOSUNNY   64  46  52 NW7       30.00F
MONTGOMERY     MOSUNNY   67  42  40 NW6       29.98F
WHITE PLAINS   MOSUNNY   69  41  36 NW10      29.98F
ISLIP          MOSUNNY   71  43  36 N7        29.97F
NEW YORK CITY  MOSUNNY   71  41  33 CALM      29.97F
CENTRAL PARK   SUNNY     71  41  33 CALM      30.00F
$$

NYZ005>009-017-018-044>046-055-056-172000-
CENTRAL


CITY           SKY/WX    TMP DP  RH WIND       PRES   REMARKS
FULTON         PTSUNNY   66  47  50 W7        29.97F
SYRACUSE       MOSUNNY   66  42  41 W8        29.97F
ROME           MOSUNNY   65  41  41 SW12      29.99F
ELMIRA         PTSUNNY   68  46  45 N5        29.97F
BINGHAMTON     PTSUNNY   63  44  50 W10       29.99F
MONTICELLO     PTSUNNY   61  45  55 NW8       30.01F
$$

NYZ026>034-041>043-172000-
NORTH


CITY           SKY/WX    TMP DP  RH WIND       PRES   REMARKS
WATERTOWN      MOSUNNY   66  45  46 W14G22    29.96F
FORT DRUM      NOT AVBL
MASSENA        CLOUDY    66  49  54 SW14      29.92F
SARANAC LAKE   CLOUDY    58  41  53 SW9       29.95F
PLATTSBURGH    PTSUNNY   63  46  54 SE14      29.93F
$$

NYZ001>004-010>016-019>021-172000-
WEST


CITY           SKY/WX    TMP DP  RH WIND       PRES   REMARKS
NIAGARA FALLS  MOSUNNY   67  46  47 SW12      29.96F
BUFFALO        MOSUNNY   65  46  50 SW14      29.98F
DUNKIRK        MOSUNNY   64  48  56 W14G23    29.99F
JAMESTOWN      CLOUDY    61  46  59 S6        30.00F
WELLSVILLE     PTSUNNY   61  42  49 NW5       30.01F
ROCHESTER      PTSUNNY   67  44  43 W10       29.97F
PENN YAN       MOSUNNY   65  42  43 SW3       29.99F
$$

             KEY
       WCI = WIND CHILL INDEX
       VSB = VISIBILITY
       HX  = HEAT INDEX
$$



USA.gov is the U.S. government's official web portal to all federal, state and local government web resources and services.